Theta_e
347 349 348 348 349 348 342 333 331 326 327 339 342 348 348 347 347 342 339 341 340 338 338 338 338 340 341 343 344 347 349 351 353 352 352 353 354 354
352 350 350 350 351 345 346 337 339 339 329 339 340 347 347 346 345 339 338 338 337 336 335 334 335 336 336 337 339 341 345 347 348 349 350 351 351 351
350 349 347 349 349 345 339 344 343 339 332 339 344 346 345 342 340 336 335 333 333 333 332 330 330 330 331 332 335 338 340 341 345 346 347 348 348 348
350 349 349 354 347 350 347 347 346 343 339 334 332 330 342 341 336 336 335 332 330 330 329 328 327 327 327 327 328 333 335 336 337 341 343 344 345 345
351 347 349 348 348 348 348 344 345 347 339 334 337 340 346 342 340 336 331 326 329 329 328 328 327 325 326 325 325 327 330 331 332 335 336 338 340 341
353 352 351 349 347 348 349 346 345 342 343 342 341 342 345 343 339 332 328 328 326 329 330 327 326 326 325 324 325 323 321 320 321 324 326 328 331 334
351 352 352 351 350 349 349 347 346 343 342 339 339 341 342 337 334 333 329 329 328 328 325 323 318 319 321 322 323 323 321 320 319 318 319 321 322 325
348 349 353 351 349 346 347 350 349 344 340 338 338 339 339 340 338 333 330 325 322 327 320 317 319 317 318 319 322 321 320 319 318 317 317 317 318 319
349 349 351 354 347 348 342 341 341 342 345 344 338 340 339 341 339 334 331 328 324 323 318 315 318 315 318 319 320 320 319 318 317 317 316 316 315 315
349 349 349 348 348 348 347 343 343 343 340 343 343 345 344 346 342 339 333 328 322 321 319 312 316 314 316 317 319 318 317 316 315 314 313 312 310 310
346 347 349 349 343 338 344 344 345 346 335 333 334 336 341 341 342 334 327 323 316 316 317 314 313 312 313 313 315 317 315 314 313 313 312 310 308 308
345 347 338 345 334 333 340 342 343 344 340 336 335 336 337 340 335 339 330 327 317 313 316 312 312 311 307 312 312 312 312 312 311 310 310 308 307 307
344 341 345 331 325 323 326 341 342 344 341 340 338 338 339 338 340 339 334 333 321 319 317 314 312 311 310 308 310 310 310 310 309 309 308 307 307 307
341 341 338 318 316 317 321 328 328 329 339 341 340 340 340 340 339 339 334 335 332 325 319 318 313 312 309 307 306 310 310 310 309 307 306 307 307 309
336 326 319 318 316 322 318 321 322 333 337 336 337 338 339 340 333 326 324 324 325 323 321 320 316 315 312 310 308 309 307 308 309 306 306 306 306 308
328 330 328 325 325 329 328 323 328 335 336 336 332 334 335 332 331 328 323 320 318 317 321 319 318 315 313 312 312 309 309 306 309 309 308 309 311 313
315 332 332 332 331 331 332 332 331 333 334 333 334 331 331 330 328 326 322 318 315 313 314 317 317 318 319 314 310 310 310 310 309 312 311 312 314 315
319 326 328 329 328 329 330 330 330 332 334 331 332 330 328 327 324 324 322 321 315 315 314 315 315 316 319 316 318 311 312 312 311 313 313 312 311 314
317 323 325 326 326 326 327 327 326 328 327 327 326 326 325 325 321 321 320 318 316 317 316 316 315 316 314 311 315 315 313 314 313 313 315 313 312 314
321 322 321 321 321 322 322 321 320 321 322 322 322 322 323 322 321 320 320 319 319 318 317 317 318 321 315 312 310 311 310 316 316 314 314 310 311 316
316 317 318 318 317 317 318 318 319 319 320 321 321 321 321 321 319 320 319 314 318 320 318 319 322 322 320 315 308 307 308 312 317 316 309 307 307 308
316 317 317 317 317 317 317 318 318 318 319 320 320 320 320 320 318 318 319 318 317 318 318 319 319 319 315 311 309 307 305 306 309 313 313 311 307 303
317 318 318 317 317 317 318 318 318 319 320 320 319 319 319 317 317 318 318 317 316 316 316 314 315 315 312 311 310 308 306 305 304 302 303 311 313 311
Wind_Speed
5 6 3 4 3 6 4 2 5 5 5 4 3 3 6 7 10 5 5 10 9 9 9 9 8 8 9 9 9 8 7 6 7 9 8 6 6 7
3 4 4 2 3 3 4 5 5 3 2 3 1 4 5 5 9 5 6 10 10 8 9 9 8 8 8 7 8 8 7 7 7 8 9 8 8 7
4 4 5 3 3 1 1 1 3 4 5 1 2 4 5 5 7 6 6 6 5 9 10 11 9 8 7 6 5 6 7 7 6 7 9 9 10 10
6 4 5 4 5 4 4 4 2 4 4 4 2 2 4 7 6 7 6 4 4 7 9 11 10 9 8 6 4 3 5 5 5 7 8 9 9 10
6 6 7 6 6 3 3 2 1 3 3 3 4 3 3 8 8 6 7 5 5 9 9 11 12 12 10 8 5 2 4 3 2 5 7 8 11 13
7 7 7 7 7 6 5 5 3 3 5 5 4 3 8 6 5 6 4 3 4 4 5 7 8 11 11 9 8 6 4 2 2 5 7 10 13 15
7 6 6 8 11 9 5 6 4 3 3 3 3 3 6 7 9 5 4 5 3 3 4 3 3 4 5 6 7 8 8 8 10 12 14 15 14 15
7 7 7 8 7 9 13 11 9 6 4 3 3 5 5 8 7 8 6 6 3 3 3 2 2 3 3 3 8 10 12 12 14 16 18 18 19 19
8 6 6 7 7 6 10 9 7 8 7 6 6 6 6 9 9 9 9 8 4 6 6 2 1 3 2 3 10 11 13 14 15 18 19 19 19 18
7 7 8 8 7 7 5 7 8 7 7 6 7 7 6 10 15 13 12 6 6 4 4 3 2 2 2 2 10 10 11 13 14 15 17 16 14 13
7 7 8 8 9 12 6 7 7 5 4 4 4 5 9 14 13 10 8 9 3 3 3 4 4 3 1 1 3 8 9 10 11 12 15 15 15 14
7 7 13 12 12 12 8 7 8 7 7 4 3 4 4 7 24 16 13 11 5 3 5 4 6 4 3 1 2 3 4 8 10 11 14 15 11 7
6 5 5 11 15 13 13 8 10 6 7 6 6 5 4 6 9 8 12 12 8 3 9 6 6 5 2 4 3 3 4 5 3 6 10 11 8 6
7 5 4 3 4 10 10 12 10 6 4 5 5 6 6 7 8 7 9 8 7 4 17 11 7 8 6 4 5 5 4 5 5 7 7 5 6 4
4 1 1 5 3 3 6 7 5 4 5 4 6 6 5 4 6 3 6 7 5 6 14 9 6 11 7 7 8 7 9 5 5 6 6 5 4 4
4 5 5 7 6 3 0 2 4 4 6 5 4 2 4 6 6 4 2 5 3 3 8 6 9 13 6 5 8 9 6 7 9 8 7 6 5 4
6 4 2 3 3 3 3 3 3 3 6 3 3 4 6 6 6 5 4 5 4 8 7 6 9 9 7 10 7 7 8 4 11 9 9 7 6 7
3 4 3 3 3 3 4 4 4 6 4 3 4 5 6 7 7 5 3 5 8 7 7 7 10 8 5 3 8 10 7 6 9 8 9 7 5 5
3 4 4 3 3 3 3 3 3 3 3 3 4 5 5 5 8 7 7 7 5 6 7 7 12 8 8 6 3 5 10 9 7 9 8 6 5 7
1 1 1 1 1 2 2 2 2 2 2 3 3 3 3 3 5 7 8 9 9 9 9 7 7 7 8 7 5 6 10 10 7 10 7 2 1 3
3 3 2 2 2 1 1 1 2 2 2 3 4 4 5 6 6 5 5 6 11 8 10 9 7 6 4 5 5 3 2 4 13 11 5 5 4 3
2 3 3 3 3 3 3 3 3 3 3 3 4 5 5 6 8 8 8 7 5 6 3 2 3 5 3 4 4 5 3 2 5 6 11 13 7 5
1 2 1 2 3 3 4 5 4 4 4 5 5 5 6 7 5 6 7 7 5 3 3 4 3 2 2 4 6 4 6 5 4 3 2 8 10 8
Wind_Direction
243 265 252 253 163 183 156 183 153 178 235 253 138 129 137 139 142 138 135 124 111 105 95 84 78 69 69 69 62 59 80 118 160 197 198 206 195 201
242 266 260 250 300 124 174 185 244 142 249 216 280 90 75 121 141 118 119 109 102 95 90 79 67 66 62 63 72 64 65 95 108 115 132 144 154 149
258 257 261 253 239 244 269 153 203 139 145 325 113 121 123 149 130 124 109 112 101 101 92 82 70 60 49 43 69 89 73 68 94 123 131 132 137 141
241 251 248 251 259 237 197 244 179 163 128 153 144 200 146 146 148 142 139 122 109 102 99 89 69 58 52 42 39 99 105 81 88 131 138 138 134 130
235 233 241 238 253 250 239 267 285 123 123 136 185 149 148 156 162 140 134 135 118 124 105 92 78 60 45 46 57 98 136 125 104 124 120 127 130 124
233 225 228 223 228 236 233 232 187 180 173 140 210 141 156 151 155 149 147 140 141 154 131 118 83 62 56 46 56 66 79 105 127 128 112 118 118 115
247 245 228 222 222 213 200 223 188 210 204 165 174 134 168 162 178 167 156 145 141 167 128 76 62 51 35 35 57 72 85 98 107 110 109 106 109 113
240 240 242 241 247 255 218 199 183 190 209 169 184 189 185 179 163 164 147 149 174 157 114 87 78 69 32 37 85 94 96 100 108 107 106 103 103 106
239 231 237 240 226 223 229 214 201 207 179 174 185 197 177 169 161 172 174 182 165 155 116 119 101 100 52 79 94 99 105 106 106 107 107 108 110 112
231 231 229 235 225 209 218 220 217 220 215 204 196 195 199 171 177 181 171 135 89 128 119 131 159 106 92 73 102 104 103 102 103 105 109 110 105 107
238 229 224 231 228 228 214 232 229 222 128 132 147 205 209 168 154 131 154 153 135 168 169 124 161 123 121 97 98 111 110 108 114 118 120 118 118 118
238 231 224 224 225 222 207 214 221 220 175 176 239 250 229 196 167 172 163 176 134 145 180 127 149 154 151 166 151 123 122 128 128 130 134 131 130 125
225 223 237 228 235 230 215 203 222 199 207 188 189 203 198 171 186 180 182 176 163 165 174 133 158 161 122 143 151 172 160 150 142 146 150 141 113 123
245 229 192 15 350 257 222 228 220 224 188 188 194 203 197 188 200 184 182 192 200 163 167 164 154 171 149 151 156 161 175 170 165 161 174 185 190 187
267 83 106 323 330 315 241 269 212 207 217 199 201 197 194 155 122 99 94 92 84 136 166 176 157 166 162 151 151 164 146 190 175 175 188 194 187 172
291 253 243 232 219 226 312 191 219 231 213 213 205 196 131 150 165 167 184 137 117 127 163 152 153 158 138 100 139 149 153 166 185 186 188 204 204 194
318 299 251 197 201 208 202 202 191 211 241 218 185 167 174 175 170 170 149 153 170 165 157 147 141 144 129 140 136 168 160 170 181 185 180 198 203 199
250 246 251 232 217 223 235 229 209 206 225 202 195 180 187 185 173 176 166 194 163 171 154 158 147 149 143 146 151 157 175 189 182 186 183 191 205 200
238 253 236 218 227 227 224 214 215 197 160 182 184 186 180 188 179 179 173 161 158 162 153 168 154 155 141 148 150 215 168 196 168 189 189 187 191 209
324 338 2 341 296 258 232 188 165 146 167 160 160 150 161 189 194 188 181 172 162 149 136 147 166 148 146 161 165 177 199 178 181 182 183 147 150 100
41 37 35 50 57 66 81 127 144 171 161 157 153 148 141 131 118 111 101 102 123 130 140 152 175 163 140 126 104 131 149 204 176 170 156 145 157 160
22 63 41 55 70 70 79 77 86 80 97 105 103 105 105 112 112 110 106 94 89 104 114 171 169 167 165 137 142 135 134 91 42 122 163 158 161 170
68 42 53 101 78 69 92 95 82 71 65 95 99 104 109 109 103 112 120 126 146 163 183 201 169 146 126 136 145 147 154 155 155 154 211 217 195 193